Time,TemperatureF,DewpointF,PressureIn,WindDirection,WindDirectionDegrees,WindSpeedMPH,WindSpeedGustMPH,Humidity,HourlyPrecipIn,Conditions,Clouds,dailyrainin,SolarRadiationWatts/m^2,SoftwareType,DateUTC
2013-07-13 00:02:00,76.6,58.3,29.81,WNW,291,1.0,2.0,53,0.00,,,0.00,0.0,WUHU216DAVISVP2,2013-07-13 07:02:00,
2013-07-13 00:07:00,76.4,58.1,29.81,WNW,291,2.0,3.0,53,0.00,,,0.00,0.0,WUHU216DAVISVP2,2013-07-13 07:07:00,
2013-07-13 00:12:00,76.1,58.4,29.81,WNW,291,2.0,3.0,54,0.00,,,0.00,0.0,WUHU216DAVISVP2,2013-07-13 07:12:00,
2013-07-13 00:17:00,75.9,58.2,29.81,WNW,291,1.0,3.0,54,0.00,,,0.00,0.0,WUHU216DAVISVP2,2013-07-13 07:17:00,
2013-07-13 00:22:00,75.7,58.0,29.80,WNW,291,0.0,3.0,54,0.00,,,0.00,0.0,WUHU216DAVISVP2,2013-07-13 07:22:00,
2013-07-13 00:27:00,75.7,57.9,29.80,WNW,291,0.0,3.0,54,0.00,,,0.00,0.0,WUHU216DAVISVP2,2013-07-13 07:27:00,
2013-07-13 00:32:00,75.6,57.9,29.81,WNW,291,0.0,3.0,54,0.00,,,0.00,0.0,WUHU216DAVISVP2,2013-07-13 07:32:00,
2013-07-13 00:37:00,75.6,57.4,29.81,WNW,291,0.0,2.0,53,0.00,,,0.00,0.0,WUHU216DAVISVP2,2013-07-13 07:37:00,
2013-07-13 00:42:00,75.6,57.4,29.80,WNW,291,0.0,1.0,53,0.00,,,0.00,0.0,WUHU216DAVISVP2,2013-07-13 07:42:00,
2013-07-13 00:47:00,75.5,57.3,29.81,WNW,291,0.0,1.0,53,0.00,,,0.00,0.0,WUHU216DAVISVP2,2013-07-13 07:47:00,
2013-07-13 00:52:00,75.3,57.7,29.81,WNW,291,0.0,1.0,54,0.00,,,0.00,0.0,WUHU216DAVISVP2,2013-07-13 07:52:00,
2013-07-13 00:57:00,75.2,57.6,29.81,WNW,291,0.0,1.0,54,0.00,,,0.00,0.0,WUHU216DAVISVP2,2013-07-13 07:57:00,
2013-07-13 01:02:00,75.1,58.0,29.81,WNW,291,1.0,2.0,55,0.00,,,0.00,0.0,WUHU216DAVISVP2,2013-07-13 08:02:00,
2013-07-13 01:07:00,74.7,58.1,29.81,WNW,291,1.0,2.0,56,0.00,,,0.00,0.0,WUHU216DAVISVP2,2013-07-13 08:07:00,
2013-07-13 01:12:00,74.4,57.8,29.81,WNW,291,1.0,3.0,56,0.00,,,0.00,0.0,WUHU216DAVISVP2,2013-07-13 08:12:00,
2013-07-13 01:17:00,74.0,58.0,29.81,WNW,291,1.0,3.0,57,0.00,,,0.00,0.0,WUHU216DAVISVP2,2013-07-13 08:17:00,
2013-07-13 01:22:00,73.7,58.7,29.81,WNW,291,3.0,4.0,59,0.00,,,0.00,0.0,WUHU216DAVISVP2,2013-07-13 08:22:00,
2013-07-13 01:27:00,73.0,58.5,29.81,WNW,289,2.0,4.0,60,0.00,,,0.00,0.0,WUHU216DAVISVP2,2013-07-13 08:27:00,
2013-07-13 01:32:00,72.4,58.4,29.81,WNW,286,3.0,4.0,61,0.00,,,0.00,0.0,WUHU216DAVISVP2,2013-07-13 08:32:00,
2013-07-13 01:37:00,72.1,58.6,29.81,West,281,4.0,4.0,62,0.00,,,0.00,0.0,WUHU216DAVISVP2,2013-07-13 08:37:00,
2013-07-13 01:42:00,71.8,58.3,29.81,West,281,2.0,4.0,62,0.00,,,0.00,0.0,WUHU216DAVISVP2,2013-07-13 08:42:00,
2013-07-13 01:47:00,71.7,58.2,29.81,West,281,2.0,4.0,62,0.00,,,0.00,0.0,WUHU216DAVISVP2,2013-07-13 08:47:00,
2013-07-13 01:52:00,71.5,58.4,29.81,West,281,1.0,4.0,63,0.00,,,0.00,0.0,WUHU216DAVISVP2,2013-07-13 08:52:00,
2013-07-13 01:57:00,71.4,58.1,29.81,West,281,2.0,4.0,63,0.00,,,0.00,0.0,WUHU216DAVISVP2,2013-07-13 08:57:00,
2013-07-13 02:02:00,71.5,58.7,29.81,West,281,0.0,4.0,64,0.00,,,0.00,0.0,WUHU216DAVISVP2,2013-07-13 09:02:00,
2013-07-13 02:07:00,71.4,58.8,29.81,West,281,1.0,3.0,64,0.00,,,0.00,0.0,WUHU216DAVISVP2,2013-07-13 09:07:00,
2013-07-13 02:12:00,71.2,58.6,29.81,West,281,1.0,3.0,64,0.00,,,0.00,0.0,WUHU216DAVISVP2,2013-07-13 09:12:00,
2013-07-13 02:17:00,71.0,58.8,29.81,West,281,0.0,3.0,65,0.00,,,0.00,0.0,WUHU216DAVISVP2,2013-07-13 09:17:00,
2013-07-13 02:22:00,70.8,59.1,29.81,West,281,1.0,3.0,66,0.00,,,0.00,0.0,WUHU216DAVISVP2,2013-07-13 09:22:00,
2013-07-13 02:27:00,70.7,59.0,29.81,West,281,1.0,3.0,66,0.00,,,0.00,0.0,WUHU216DAVISVP2,2013-07-13 09:27:00,
2013-07-13 02:32:00,70.6,58.9,29.81,West,281,2.0,4.0,66,0.00,,,0.00,0.0,WUHU216DAVISVP2,2013-07-13 09:32:00,
2013-07-13 02:37:00,70.5,59.2,29.82,West,281,1.0,4.0,67,0.00,,,0.00,0.0,WUHU216DAVISVP2,2013-07-13 09:37:00,
2013-07-13 02:42:00,70.4,59.1,29.82,West,281,0.0,4.0,67,0.00,,,0.00,0.0,WUHU216DAVISVP2,2013-07-13 09:42:00,
2013-07-13 02:47:00,70.3,59.0,29.82,West,281,1.0,3.0,67,0.00,,,0.00,0.0,WUHU216DAVISVP2,2013-07-13 09:47:00,
2013-07-13 02:52:00,69.9,59.0,29.82,West,281,2.0,3.0,68,0.00,,,0.00,0.0,WUHU216DAVISVP2,2013-07-13 09:52:00,
2013-07-13 02:57:00,69.6,59.2,29.82,West,281,3.0,4.0,69,0.00,,,0.00,0.0,WUHU216DAVISVP2,2013-07-13 09:57:00,
2013-07-13 03:02:00,69.4,59.4,29.82,West,281,0.0,4.0,70,0.00,,,0.00,0.0,WUHU216DAVISVP2,2013-07-13 10:02:00,
2013-07-13 03:07:00,69.3,59.3,29.82,West,281,1.0,4.0,70,0.00,,,0.00,0.0,WUHU216DAVISVP2,2013-07-13 10:07:00,
2013-07-13 03:12:00,69.2,59.2,29.82,West,281,2.0,4.0,70,0.00,,,0.00,0.0,WUHU216DAVISVP2,2013-07-13 10:12:00,
2013-07-13 03:17:00,69.2,59.2,29.82,West,281,0.0,3.0,70,0.00,,,0.00,0.0,WUHU216DAVISVP2,2013-07-13 10:17:00,
2013-07-13 03:22:00,69.1,59.1,29.82,West,281,0.0,3.0,70,0.00,,,0.00,0.0,WUHU216DAVISVP2,2013-07-13 10:22:00,
2013-07-13 03:27:00,69.0,59.0,29.83,West,281,0.0,3.0,70,0.00,,,0.00,0.0,WUHU216DAVISVP2,2013-07-13 10:27:00,
2013-07-13 03:32:00,68.9,58.9,29.83,West,281,0.0,1.0,70,0.00,,,0.00,0.0,WUHU216DAVISVP2,2013-07-13 10:32:00,
2013-07-13 03:37:00,68.8,58.8,29.83,West,281,0.0,2.0,70,0.00,,,0.00,0.0,WUHU216DAVISVP2,2013-07-13 10:37:00,
2013-07-13 03:42:00,68.6,59.0,29.83,West,281,0.0,2.0,71,0.00,,,0.00,0.0,WUHU216DAVISVP2,2013-07-13 10:42:00,
2013-07-13 03:47:00,68.4,58.8,29.83,West,281,0.0,2.0,71,0.00,,,0.00,0.0,WUHU216DAVISVP2,2013-07-13 10:47:00,
2013-07-13 03:52:00,68.3,59.1,29.83,West,281,0.0,2.0,72,0.00,,,0.00,0.0,WUHU216DAVISVP2,2013-07-13 10:52:00,
2013-07-13 03:57:00,68.2,58.6,29.83,West,281,0.0,1.0,71,0.00,,,0.00,0.0,WUHU216DAVISVP2,2013-07-13 10:57:00,
2013-07-13 04:02:00,68.0,58.8,29.83,West,281,0.0,0.0,72,0.00,,,0.00,0.0,WUHU216DAVISVP2,2013-07-13 11:02:00,
2013-07-13 04:07:00,67.8,58.6,29.83,West,281,0.0,0.0,72,0.00,,,0.00,0.0,WUHU216DAVISVP2,2013-07-13 11:07:00,
2013-07-13 04:12:00,67.7,58.9,29.83,West,281,0.0,0.0,73,0.00,,,0.00,0.0,WUHU216DAVISVP2,2013-07-13 11:12:00,
2013-07-13 04:17:00,67.6,58.8,29.83,West,281,0.0,0.0,73,0.00,,,0.00,0.0,WUHU216DAVISVP2,2013-07-13 11:17:00,
2013-07-13 04:22:00,67.5,59.1,29.83,West,281,0.0,0.0,74,0.00,,,0.00,0.0,WUHU216DAVISVP2,2013-07-13 11:22:00,
2013-07-13 04:27:00,67.4,58.6,29.83,West,281,0.0,0.0,73,0.00,,,0.00,0.0,WUHU216DAVISVP2,2013-07-13 11:27:00,
2013-07-13 04:32:00,67.3,58.9,29.83,West,281,0.0,0.0,74,0.00,,,0.00,0.0,WUHU216DAVISVP2,2013-07-13 11:32:00,
2013-07-13 04:37:00,67.2,59.1,29.83,West,281,0.0,0.0,75,0.00,,,0.00,0.0,WUHU216DAVISVP2,2013-07-13 11:37:00,
2013-07-13 04:42:00,67.1,58.7,29.83,West,281,0.0,0.0,74,0.00,,,0.00,0.0,WUHU216DAVISVP2,2013-07-13 11:42:00,
2013-07-13 04:47:00,66.9,58.8,29.83,West,281,0.0,0.0,75,0.00,,,0.00,0.0,WUHU216DAVISVP2,2013-07-13 11:47:00,
2013-07-13 04:52:00,66.8,58.7,29.83,West,281,0.0,0.0,75,0.00,,,0.00,0.0,WUHU216DAVISVP2,2013-07-13 11:52:00,
2013-07-13 04:57:00,66.5,58.8,29.83,West,281,0.0,0.0,76,0.00,,,0.00,0.0,WUHU216DAVISVP2,2013-07-13 11:57:00,
2013-07-13 05:02:00,66.0,58.6,29.83,West,281,0.0,0.0,77,0.00,,,0.00,0.0,WUHU216DAVISVP2,2013-07-13 12:02:00,
2013-07-13 05:07:00,65.7,58.7,29.84,West,281,0.0,1.0,78,0.00,,,0.00,0.0,WUHU216DAVISVP2,2013-07-13 12:07:00,
2013-07-13 05:12:00,65.4,58.4,29.84,West,281,0.0,1.0,78,0.00,,,0.00,0.0,WUHU216DAVISVP2,2013-07-13 12:12:00,
2013-07-13 05:17:00,65.2,58.6,29.84,West,281,0.0,1.0,79,0.00,,,0.00,0.0,WUHU216DAVISVP2,2013-07-13 12:17:00,
2013-07-13 05:22:00,65.1,58.5,29.84,West,281,0.0,1.0,79,0.00,,,0.00,0.0,WUHU216DAVISVP2,2013-07-13 12:22:00,
2013-07-13 05:27:00,65.3,58.7,29.84,West,281,0.0,2.0,79,0.00,,,0.00,0.0,WUHU216DAVISVP2,2013-07-13 12:27:00,
2013-07-13 05:32:00,65.5,58.9,29.84,West,281,0.0,2.0,79,0.00,,,0.00,0.0,WUHU216DAVISVP2,2013-07-13 12:32:00,
2013-07-13 05:37:00,65.6,59.0,29.84,West,281,1.0,2.0,79,0.00,,,0.00,0.0,WUHU216DAVISVP2,2013-07-13 12:37:00,
2013-07-13 05:42:00,65.7,59.1,29.84,West,281,1.0,2.0,79,0.00,,,0.00,0.0,WUHU216DAVISVP2,2013-07-13 12:42:00,
2013-07-13 05:47:00,65.7,59.1,29.84,West,281,2.0,2.0,79,0.00,,,0.00,0.0,WUHU216DAVISVP2,2013-07-13 12:47:00,
2013-07-13 05:52:00,65.7,59.1,29.85,South,190,1.0,3.0,79,0.00,,,0.00,5.0,WUHU216DAVISVP2,2013-07-13 12:52:00,
2013-07-13 05:57:00,65.6,59.0,29.84,South,190,0.0,3.0,79,0.00,,,0.00,7.0,WUHU216DAVISVP2,2013-07-13 12:57:00,
2013-07-13 06:02:00,65.6,58.9,29.85,South,190,1.0,3.0,79,0.00,,,0.00,9.0,WUHU216DAVISVP2,2013-07-13 13:02:00,
2013-07-13 06:07:00,65.6,58.9,29.85,South,190,0.0,3.0,79,0.00,,,0.00,12.0,WUHU216DAVISVP2,2013-07-13 13:07:00,
2013-07-13 06:12:00,65.6,58.6,29.85,South,190,0.0,2.0,78,0.00,,,0.00,16.0,WUHU216DAVISVP2,2013-07-13 13:12:00,
2013-07-13 06:17:00,65.7,58.7,29.85,South,190,0.0,2.0,78,0.00,,,0.00,19.0,WUHU216DAVISVP2,2013-07-13 13:17:00,
2013-07-13 06:22:00,65.9,58.9,29.85,South,190,2.0,2.0,78,0.00,,,0.00,23.0,WUHU216DAVISVP2,2013-07-13 13:22:00,
2013-07-13 06:27:00,66.1,59.1,29.85,South,190,0.0,2.0,78,0.00,,,0.00,40.0,WUHU216DAVISVP2,2013-07-13 13:27:00,
2013-07-13 06:32:00,66.2,58.9,29.85,South,190,2.0,3.0,77,0.00,,,0.00,56.0,WUHU216DAVISVP2,2013-07-13 13:32:00,
2013-07-13 06:37:00,66.4,59.1,29.85,South,190,0.0,3.0,77,0.00,,,0.00,67.0,WUHU216DAVISVP2,2013-07-13 13:37:00,
2013-07-13 06:42:00,66.6,59.3,29.85,South,190,0.0,3.0,77,0.00,,,0.00,83.0,WUHU216DAVISVP2,2013-07-13 13:42:00,
2013-07-13 06:47:00,66.8,59.0,29.85,South,190,0.0,3.0,76,0.00,,,0.00,97.0,WUHU216DAVISVP2,2013-07-13 13:47:00,
2013-07-13 06:52:00,67.1,58.9,29.86,South,190,2.0,3.0,75,0.00,,,0.00,114.0,WUHU216DAVISVP2,2013-07-13 13:52:00,
2013-07-13 06:57:00,67.4,58.8,29.86,South,190,1.0,5.0,74,0.00,,,0.00,130.0,WUHU216DAVISVP2,2013-07-13 13:57:00,
2013-07-13 07:02:00,67.7,58.9,29.86,South,190,1.0,5.0,73,0.00,,,0.00,146.0,WUHU216DAVISVP2,2013-07-13 14:02:00,
2013-07-13 07:07:00,68.3,59.5,29.86,South,190,0.0,5.0,73,0.00,,,0.00,163.0,WUHU216DAVISVP2,2013-07-13 14:07:00,
2013-07-13 07:12:00,69.0,59.4,29.86,South,190,1.0,5.0,71,0.00,,,0.00,179.0,WUHU216DAVISVP2,2013-07-13 14:12:00,
2013-07-13 07:17:00,69.5,59.5,29.86,South,186,0.0,4.0,70,0.00,,,0.00,193.0,WUHU216DAVISVP2,2013-07-13 14:17:00,
2013-07-13 07:22:00,69.9,59.0,29.86,South,184,0.0,3.0,68,0.00,,,0.00,209.0,WUHU216DAVISVP2,2013-07-13 14:22:00,
2013-07-13 07:27:00,70.2,58.7,29.86,South,169,2.0,4.0,67,0.00,,,0.00,225.0,WUHU216DAVISVP2,2013-07-13 14:27:00,
2013-07-13 07:32:00,70.6,58.9,29.86,SSE,167,2.0,4.0,66,0.00,,,0.00,243.0,WUHU216DAVISVP2,2013-07-13 14:32:00,
2013-07-13 07:37:00,71.1,59.2,29.87,SSE,167,2.0,4.0,66,0.00,,,0.00,257.0,WUHU216DAVISVP2,2013-07-13 14:37:00,
2013-07-13 07:42:00,71.7,59.3,29.87,SE,134,3.0,4.0,65,0.00,,,0.00,274.0,WUHU216DAVISVP2,2013-07-13 14:42:00,
2013-07-13 07:47:00,72.1,59.0,29.87,SE,142,1.0,4.0,63,0.00,,,0.00,292.0,WUHU216DAVISVP2,2013-07-13 14:47:00,
2013-07-13 07:52:00,72.8,59.2,29.87,ESE,120,3.0,5.0,62,0.00,,,0.00,304.0,WUHU216DAVISVP2,2013-07-13 14:52:00,
2013-07-13 07:57:00,73.2,59.1,29.87,SE,128,3.0,5.0,61,0.00,,,0.00,320.0,WUHU216DAVISVP2,2013-07-13 14:57:00,
2013-07-13 08:02:00,73.5,59.9,29.87,ESE,119,3.0,5.0,62,0.00,,,0.00,338.0,WUHU216DAVISVP2,2013-07-13 15:02:00,
2013-07-13 08:07:00,73.9,59.8,29.87,ESE,116,3.0,5.0,61,0.00,,,0.00,353.0,WUHU216DAVISVP2,2013-07-13 15:07:00,
2013-07-13 08:12:00,74.3,59.2,29.87,ESE,115,2.0,8.0,59,0.00,,,0.00,371.0,WUHU216DAVISVP2,2013-07-13 15:12:00,
2013-07-13 08:17:00,74.7,59.4,29.88,ESE,115,3.0,8.0,59,0.00,,,0.00,388.0,WUHU216DAVISVP2,2013-07-13 15:17:00,
2013-07-13 08:22:00,75.1,59.5,29.88,ESE,113,1.0,8.0,58,0.00,,,0.00,406.0,WUHU216DAVISVP2,2013-07-13 15:22:00,
2013-07-13 08:27:00,75.5,59.4,29.88,ESE,108,5.0,8.0,57,0.00,,,0.00,418.0,WUHU216DAVISVP2,2013-07-13 15:27:00,
2013-07-13 08:32:00,75.7,59.6,29.88,ESE,116,2.0,7.0,57,0.00,,,0.00,434.0,WUHU216DAVISVP2,2013-07-13 15:32:00,
2013-07-13 08:37:00,76.2,59.9,29.88,ESE,118,4.0,7.0,57,0.00,,,0.00,450.0,WUHU216DAVISVP2,2013-07-13 15:37:00,
2013-07-13 08:42:00,76.6,59.4,29.88,South,173,4.0,7.0,55,0.00,,,0.00,464.0,WUHU216DAVISVP2,2013-07-13 15:42:00,
2013-07-13 08:47:00,76.8,59.6,29.88,SSE,151,5.0,7.0,55,0.00,,,0.00,482.0,WUHU216DAVISVP2,2013-07-13 15:47:00,
2013-07-13 08:52:00,77.2,59.4,29.88,South,171,2.0,7.0,54,0.00,,,0.00,496.0,WUHU216DAVISVP2,2013-07-13 15:52:00,
2013-07-13 08:57:00,77.4,59.1,29.88,SE,132,1.0,7.0,53,0.00,,,0.00,513.0,WUHU216DAVISVP2,2013-07-13 15:57:00,
2013-07-13 09:02:00,77.6,59.3,29.88,SSE,155,1.0,7.0,53,0.00,,,0.00,527.0,WUHU216DAVISVP2,2013-07-13 16:02:00,
2013-07-13 09:07:00,78.5,59.5,29.88,SSE,148,1.0,7.0,52,0.00,,,0.00,541.0,WUHU216DAVISVP2,2013-07-13 16:07:00,
2013-07-13 09:12:00,79.1,59.0,29.88,South,180,4.0,7.0,50,0.00,,,0.00,557.0,WUHU216DAVISVP2,2013-07-13 16:12:00,
2013-07-13 09:17:00,79.4,59.8,29.88,SE,144,2.0,6.0,51,0.00,,,0.00,573.0,WUHU216DAVISVP2,2013-07-13 16:17:00,
2013-07-13 09:22:00,79.9,59.0,29.88,SSE,167,2.0,5.0,49,0.00,,,0.00,589.0,WUHU216DAVISVP2,2013-07-13 16:22:00,
2013-07-13 09:27:00,80.1,58.6,29.88,SSE,154,2.0,5.0,48,0.00,,,0.00,603.0,WUHU216DAVISVP2,2013-07-13 16:27:00,
2013-07-13 09:32:00,80.1,59.2,29.88,ESE,122,2.0,6.0,49,0.00,,,0.00,619.0,WUHU216DAVISVP2,2013-07-13 16:32:00,
2013-07-13 09:37:00,80.3,59.4,29.87,SE,146,1.0,6.0,49,0.00,,,0.00,631.0,WUHU216DAVISVP2,2013-07-13 16:37:00,
2013-07-13 09:42:00,80.9,59.5,29.87,SE,146,1.0,6.0,48,0.00,,,0.00,647.0,WUHU216DAVISVP2,2013-07-13 16:42:00,
2013-07-13 09:47:00,81.0,58.9,29.87,SE,138,1.0,5.0,47,0.00,,,0.00,659.0,WUHU216DAVISVP2,2013-07-13 16:47:00,
2013-07-13 09:52:00,81.8,59.7,29.87,SE,133,4.0,5.0,47,0.00,,,0.00,673.0,WUHU216DAVISVP2,2013-07-13 16:52:00,
2013-07-13 09:57:00,82.5,60.3,29.87,SE,124,0.0,5.0,47,0.00,,,0.00,686.0,WUHU216DAVISVP2,2013-07-13 16:57:00,
2013-07-13 10:02:00,83.0,59.5,29.87,SE,132,0.0,5.0,45,0.00,,,0.00,698.0,WUHU216DAVISVP2,2013-07-13 17:02:00,
2013-07-13 10:07:00,82.7,58.6,29.87,South,185,0.0,6.0,44,0.00,,,0.00,710.0,WUHU216DAVISVP2,2013-07-13 17:07:00,
2013-07-13 10:12:00,82.4,59.0,29.87,South,185,1.0,6.0,45,0.00,,,0.00,722.0,WUHU216DAVISVP2,2013-07-13 17:12:00,
2013-07-13 10:17:00,82.8,59.3,29.87,South,190,1.0,6.0,45,0.00,,,0.00,733.0,WUHU216DAVISVP2,2013-07-13 17:17:00,
2013-07-13 10:22:00,83.3,59.1,29.87,South,190,0.0,6.0,44,0.00,,,0.00,749.0,WUHU216DAVISVP2,2013-07-13 17:22:00,
2013-07-13 10:27:00,83.9,59.7,29.87,ESE,112,3.0,5.0,44,0.00,,,0.00,759.0,WUHU216DAVISVP2,2013-07-13 17:27:00,
2013-07-13 10:32:00,84.3,60.6,29.87,South,182,0.0,5.0,45,0.00,,,0.00,770.0,WUHU216DAVISVP2,2013-07-13 17:32:00,
2013-07-13 10:36:00,85.2,59.5,29.87,SSE,151,2.0,5.0,42,0.00,,,0.00,780.0,WUHU216DAVISVP2,2013-07-13 17:36:00,
2013-07-13 10:42:00,85.8,60.1,29.87,SSE,152,2.0,5.0,42,0.00,,,0.00,789.0,WUHU216DAVISVP2,2013-07-13 17:42:00,
2013-07-13 10:47:00,86.0,59.5,29.87,SSE,150,0.0,5.0,41,0.00,,,0.00,800.0,WUHU216DAVISVP2,2013-07-13 17:47:00,
2013-07-13 10:52:00,86.2,58.3,29.87,SSW,203,0.0,5.0,39,0.00,,,0.00,812.0,WUHU216DAVISVP2,2013-07-13 17:52:00,
2013-07-13 10:57:00,86.2,59.7,29.87,SW,223,2.0,5.0,41,0.00,,,0.00,824.0,WUHU216DAVISVP2,2013-07-13 17:57:00,
2013-07-13 11:02:00,86.6,60.1,29.87,South,186,1.0,5.0,41,0.00,,,0.00,835.0,WUHU216DAVISVP2,2013-07-13 18:02:00,
2013-07-13 11:07:00,87.3,58.5,29.86,SSW,196,0.0,5.0,38,0.00,,,0.00,842.0,WUHU216DAVISVP2,2013-07-13 18:07:00,
2013-07-13 11:12:00,87.6,58.8,29.87,WSW,245,4.0,6.0,38,0.00,,,0.00,851.0,WUHU216DAVISVP2,2013-07-13 18:12:00,
2013-07-13 11:17:00,88.0,59.1,29.86,WSW,242,1.0,6.0,38,0.00,,,0.00,854.0,WUHU216DAVISVP2,2013-07-13 18:17:00,
2013-07-13 11:22:00,88.4,58.7,29.86,SW,218,4.0,6.0,37,0.00,,,0.00,863.0,WUHU216DAVISVP2,2013-07-13 18:22:00,
2013-07-13 11:27:00,88.5,58.1,29.86,SSW,207,1.0,6.0,36,0.00,,,0.00,870.0,WUHU216DAVISVP2,2013-07-13 18:27:00,
2013-07-13 11:32:00,88.7,58.2,29.86,WSW,246,5.0,6.0,36,0.00,,,0.00,879.0,WUHU216DAVISVP2,2013-07-13 18:32:00,
2013-07-13 11:37:00,88.6,56.5,29.87,SW,223,0.0,6.0,34,0.00,,,0.00,889.0,WUHU216DAVISVP2,2013-07-13 18:37:00,
2013-07-13 11:42:00,89.5,58.1,29.86,SW,222,2.0,6.0,35,0.00,,,0.00,889.0,WUHU216DAVISVP2,2013-07-13 18:42:00,
2013-07-13 11:47:00,89.8,55.9,29.86,SSW,213,0.0,6.0,32,0.00,,,0.00,898.0,WUHU216DAVISVP2,2013-07-13 18:47:00,
2013-07-13 11:51:00,89.6,55.0,29.86,SW,220,1.0,7.0,31,0.00,,,0.00,909.0,WUHU216DAVISVP2,2013-07-13 18:51:00,
2013-07-13 11:56:00,90.1,58.0,29.86,NW,311,2.0,7.0,34,0.00,,,0.00,909.0,WUHU216DAVISVP2,2013-07-13 18:56:00,
2013-07-13 12:02:00,91.0,57.9,29.86,NW,311,1.0,7.0,33,0.00,,,0.00,914.0,WUHU216DAVISVP2,2013-07-13 19:02:00,
2013-07-13 12:07:00,91.2,58.0,29.86,NW,308,3.0,7.0,33,0.00,,,0.00,919.0,WUHU216DAVISVP2,2013-07-13 19:07:00,
2013-07-13 12:12:00,91.3,58.1,29.86,West,265,5.0,6.0,33,0.00,,,0.00,919.0,WUHU216DAVISVP2,2013-07-13 19:12:00,
2013-07-13 12:17:00,91.6,58.3,29.85,NW,316,2.0,6.0,33,0.00,,,0.00,923.0,WUHU216DAVISVP2,2013-07-13 19:17:00,
2013-07-13 12:22:00,92.2,58.9,29.85,West,265,2.0,7.0,33,0.00,,,0.00,926.0,WUHU216DAVISVP2,2013-07-13 19:22:00,
2013-07-13 12:27:00,92.1,57.0,29.85,WSW,254,2.0,7.0,31,0.00,,,0.00,933.0,WUHU216DAVISVP2,2013-07-13 19:27:00,
2013-07-13 12:32:00,92.6,53.7,29.85,WSW,241,0.0,7.0,27,0.00,,,0.00,940.0,WUHU216DAVISVP2,2013-07-13 19:32:00,
2013-07-13 12:37:00,93.6,55.5,29.85,NW,317,3.0,6.0,28,0.00,,,0.00,933.0,WUHU216DAVISVP2,2013-07-13 19:37:00,
2013-07-13 12:42:00,93.5,57.3,29.85,NW,309,4.0,5.0,30,0.00,,,0.00,937.0,WUHU216DAVISVP2,2013-07-13 19:42:00,
2013-07-13 12:47:00,93.2,59.0,29.85,NW,319,0.0,8.0,32,0.00,,,0.00,932.0,WUHU216DAVISVP2,2013-07-13 19:47:00,
2013-07-13 12:52:00,93.2,59.8,29.85,West,259,4.0,8.0,33,0.00,,,0.00,935.0,WUHU216DAVISVP2,2013-07-13 19:52:00,
2013-07-13 12:57:00,92.3,58.2,29.85,WNW,300,6.0,9.0,32,0.00,,,0.00,932.0,WUHU216DAVISVP2,2013-07-13 19:57:00,
2013-07-13 13:02:00,92.3,57.2,29.85,WSW,258,6.0,9.0,31,0.00,,,0.00,942.0,WUHU216DAVISVP2,2013-07-13 20:02:00,
2013-07-13 13:07:00,92.4,56.4,29.85,WNW,303,7.0,9.0,30,0.00,,,0.00,942.0,WUHU216DAVISVP2,2013-07-13 20:07:00,
2013-07-13 13:12:00,92.5,57.4,29.85,WNW,284,4.0,9.0,31,0.00,,,0.00,939.0,WUHU216DAVISVP2,2013-07-13 20:12:00,
2013-07-13 13:17:00,92.8,57.6,29.84,WSW,256,5.0,9.0,31,0.00,,,0.00,933.0,WUHU216DAVISVP2,2013-07-13 20:17:00,
2013-07-13 13:22:00,92.9,55.9,29.84,WNW,294,3.0,9.0,29,0.00,,,0.00,935.0,WUHU216DAVISVP2,2013-07-13 20:22:00,
2013-07-13 13:27:00,92.8,55.8,29.84,WNW,292,4.0,9.0,29,0.00,,,0.00,937.0,WUHU216DAVISVP2,2013-07-13 20:27:00,
2013-07-13 13:32:00,93.3,55.3,29.84,West,267,3.0,9.0,28,0.00,,,0.00,937.0,WUHU216DAVISVP2,2013-07-13 20:32:00,
2013-07-13 13:37:00,93.6,54.5,29.84,NW,320,0.0,9.0,27,0.00,,,0.00,937.0,WUHU216DAVISVP2,2013-07-13 20:37:00,
2013-07-13 13:42:00,94.1,54.9,29.84,West,263,4.0,9.0,27,0.00,,,0.00,932.0,WUHU216DAVISVP2,2013-07-13 20:42:00,
2013-07-13 13:47:00,94.6,55.4,29.84,NW,306,3.0,9.0,27,0.00,,,0.00,933.0,WUHU216DAVISVP2,2013-07-13 20:47:00,
2013-07-13 13:52:00,94.7,54.5,29.84,West,267,6.0,8.0,26,0.00,,,0.00,928.0,WUHU216DAVISVP2,2013-07-13 20:52:00,
2013-07-13 13:57:00,94.3,56.2,29.84,WNW,294,5.0,8.0,28,0.00,,,0.00,925.0,WUHU216DAVISVP2,2013-07-13 20:57:00,
2013-07-13 14:02:00,94.7,54.4,29.83,WSW,250,4.0,8.0,26,0.00,,,0.00,918.0,WUHU216DAVISVP2,2013-07-13 21:02:00,
2013-07-13 14:07:00,94.7,56.5,29.83,West,265,6.0,9.0,28,0.00,,,0.00,911.0,WUHU216DAVISVP2,2013-07-13 21:07:00,
2013-07-13 14:12:00,94.6,55.4,29.83,NNW,338,5.0,9.0,27,0.00,,,0.00,905.0,WUHU216DAVISVP2,2013-07-13 21:12:00,
2013-07-13 14:17:00,95.6,53.0,29.83,West,260,7.0,9.0,24,0.00,,,0.00,902.0,WUHU216DAVISVP2,2013-07-13 21:17:00,
2013-07-13 14:22:00,95.1,54.8,29.83,WNW,294,5.0,9.0,26,0.00,,,0.00,895.0,WUHU216DAVISVP2,2013-07-13 21:22:00,
2013-07-13 14:27:00,95.5,54.0,29.83,West,265,3.0,9.0,25,0.00,,,0.00,888.0,WUHU216DAVISVP2,2013-07-13 21:27:00,
2013-07-13 14:32:00,95.5,56.1,29.83,NW,321,3.0,9.0,27,0.00,,,0.00,874.0,WUHU216DAVISVP2,2013-07-13 21:32:00,
2013-07-13 14:37:00,95.8,56.5,29.83,NW,323,5.0,10.0,27,0.00,,,0.00,872.0,WUHU216DAVISVP2,2013-07-13 21:37:00,
2013-07-13 14:42:00,96.1,55.7,29.83,NNW,335,1.0,10.0,26,0.00,,,0.00,865.0,WUHU216DAVISVP2,2013-07-13 21:42:00,
2013-07-13 14:47:00,96.1,56.7,29.83,NW,306,4.0,10.0,27,0.00,,,0.00,856.0,WUHU216DAVISVP2,2013-07-13 21:47:00,
2013-07-13 14:52:00,96.4,55.9,29.82,WNW,290,8.0,10.0,26,0.00,,,0.00,849.0,WUHU216DAVISVP2,2013-07-13 21:52:00,
2013-07-13 14:57:00,96.3,54.7,29.82,WNW,285,6.0,9.0,25,0.00,,,0.00,840.0,WUHU216DAVISVP2,2013-07-13 21:57:00,
2013-07-13 15:02:00,96.3,53.6,29.82,WNW,293,5.0,9.0,24,0.00,,,0.00,830.0,WUHU216DAVISVP2,2013-07-13 22:02:00,
2013-07-13 15:07:00,96.3,54.7,29.82,WNW,284,7.0,9.0,25,0.00,,,0.00,823.0,WUHU216DAVISVP2,2013-07-13 22:07:00,
2013-07-13 15:12:00,96.6,53.9,29.82,NW,316,5.0,8.0,24,0.00,,,0.00,809.0,WUHU216DAVISVP2,2013-07-13 22:12:00,
2013-07-13 15:17:00,97.2,54.4,29.81,WNW,287,5.0,8.0,24,0.00,,,0.00,805.0,WUHU216DAVISVP2,2013-07-13 22:17:00,
2013-07-13 15:22:00,97.6,54.7,29.81,West,262,5.0,8.0,24,0.00,,,0.00,796.0,WUHU216DAVISVP2,2013-07-13 22:22:00,
2013-07-13 15:27:00,97.6,54.7,29.81,NW,315,4.0,9.0,24,0.00,,,0.00,786.0,WUHU216DAVISVP2,2013-07-13 22:27:00,
2013-07-13 15:32:00,98.1,52.8,29.81,NW,323,5.0,9.0,22,0.00,,,0.00,775.0,WUHU216DAVISVP2,2013-07-13 22:32:00,
2013-07-13 15:37:00,97.7,54.8,29.81,NNW,338,3.0,9.0,24,0.00,,,0.00,765.0,WUHU216DAVISVP2,2013-07-13 22:37:00,
2013-07-13 15:42:00,98.0,52.7,29.81,NW,319,0.0,9.0,22,0.00,,,0.00,754.0,WUHU216DAVISVP2,2013-07-13 22:42:00,
2013-07-13 15:47:00,98.2,52.9,29.80,WSW,254,6.0,8.0,22,0.00,,,0.00,738.0,WUHU216DAVISVP2,2013-07-13 22:47:00,
2013-07-13 15:52:00,98.0,51.4,29.80,West,269,6.0,8.0,21,0.00,,,0.00,729.0,WUHU216DAVISVP2,2013-07-13 22:52:00,
2013-07-13 15:57:00,98.1,52.8,29.80,WNW,298,5.0,8.0,22,0.00,,,0.00,715.0,WUHU216DAVISVP2,2013-07-13 22:57:00,
2013-07-13 16:02:00,98.3,52.9,29.80,NW,307,6.0,8.0,22,0.00,,,0.00,705.0,WUHU216DAVISVP2,2013-07-13 23:02:00,
2013-07-13 16:07:00,98.8,53.4,29.80,WNW,301,5.0,8.0,22,0.00,,,0.00,694.0,WUHU216DAVISVP2,2013-07-13 23:07:00,
2013-07-13 16:12:00,98.4,54.2,29.80,WNW,286,4.0,8.0,23,0.00,,,0.00,680.0,WUHU216DAVISVP2,2013-07-13 23:12:00,
2013-07-13 16:17:00,98.4,54.2,29.79,WNW,295,5.0,9.0,23,0.00,,,0.00,668.0,WUHU216DAVISVP2,2013-07-13 23:17:00,
2013-07-13 16:22:00,98.2,54.1,29.79,WNW,296,4.0,10.0,23,0.00,,,0.00,657.0,WUHU216DAVISVP2,2013-07-13 23:22:00,
2013-07-13 16:27:00,98.0,53.9,29.79,WNW,290,8.0,10.0,23,0.00,,,0.00,643.0,WUHU216DAVISVP2,2013-07-13 23:27:00,
2013-07-13 16:32:00,98.0,55.0,29.79,West,261,7.0,10.0,24,0.00,,,0.00,629.0,WUHU216DAVISVP2,2013-07-13 23:32:00,
2013-07-13 16:37:00,98.0,53.9,29.79,NW,311,5.0,9.0,23,0.00,,,0.00,613.0,WUHU216DAVISVP2,2013-07-13 23:37:00,
2013-07-13 16:42:00,98.3,54.1,29.79,NW,304,6.0,9.0,23,0.00,,,0.00,601.0,WUHU216DAVISVP2,2013-07-13 23:42:00,
2013-07-13 16:47:00,98.7,53.3,29.79,WSW,245,6.0,9.0,22,0.00,,,0.00,585.0,WUHU216DAVISVP2,2013-07-13 23:47:00,
2013-07-13 16:52:00,98.7,53.3,29.78,West,263,6.0,9.0,22,0.00,,,0.00,571.0,WUHU216DAVISVP2,2013-07-13 23:52:00,
2013-07-13 16:57:00,98.9,52.2,29.78,WNW,297,4.0,9.0,21,0.00,,,0.00,559.0,WUHU216DAVISVP2,2013-07-13 23:57:00,
2013-07-13 17:02:00,99.1,53.6,29.78,WNW,289,3.0,8.0,22,0.00,,,0.00,545.0,WUHU216DAVISVP2,2013-07-14 00:02:00,
2013-07-13 17:07:00,98.8,52.1,29.78,WNW,295,3.0,8.0,21,0.00,,,0.00,531.0,WUHU216DAVISVP2,2013-07-14 00:07:00,
2013-07-13 17:12:00,98.9,53.4,29.78,NW,306,3.0,8.0,22,0.00,,,0.00,515.0,WUHU216DAVISVP2,2013-07-14 00:12:00,
2013-07-13 17:17:00,98.9,54.6,29.78,NW,311,6.0,8.0,23,0.00,,,0.00,503.0,WUHU216DAVISVP2,2013-07-14 00:17:00,
2013-07-13 17:22:00,99.4,52.6,29.78,West,275,6.0,8.0,21,0.00,,,0.00,487.0,WUHU216DAVISVP2,2013-07-14 00:22:00,
2013-07-13 17:27:00,99.1,52.3,29.78,NW,313,5.0,8.0,21,0.00,,,0.00,471.0,WUHU216DAVISVP2,2013-07-14 00:27:00,
2013-07-13 17:32:00,98.7,53.3,29.77,NW,309,5.0,8.0,22,0.00,,,0.00,455.0,WUHU216DAVISVP2,2013-07-14 00:32:00,
2013-07-13 17:37:00,98.8,52.1,29.77,NW,319,3.0,8.0,21,0.00,,,0.00,443.0,WUHU216DAVISVP2,2013-07-14 00:37:00,
2013-07-13 17:42:00,99.1,53.6,29.77,WNW,299,5.0,8.0,22,0.00,,,0.00,424.0,WUHU216DAVISVP2,2013-07-14 00:42:00,
2013-07-13 17:47:00,98.8,53.4,29.77,WNW,302,3.0,8.0,22,0.00,,,0.00,410.0,WUHU216DAVISVP2,2013-07-14 00:47:00,
2013-07-13 17:52:00,99.1,52.3,29.77,WNW,291,2.0,8.0,21,0.00,,,0.00,394.0,WUHU216DAVISVP2,2013-07-14 00:52:00,
2013-07-13 17:57:00,99.5,52.7,29.77,WNW,290,7.0,8.0,21,0.00,,,0.00,376.0,WUHU216DAVISVP2,2013-07-14 00:57:00,
2013-07-13 18:02:00,99.1,53.6,29.77,NW,313,5.0,8.0,22,0.00,,,0.00,359.0,WUHU216DAVISVP2,2013-07-14 01:02:00,
2013-07-13 18:07:00,99.2,52.4,29.76,NW,309,4.0,8.0,21,0.00,,,0.00,346.0,WUHU216DAVISVP2,2013-07-14 01:07:00,
2013-07-13 18:12:00,99.1,51.0,29.76,WNW,300,4.0,8.0,20,0.00,,,0.00,329.0,WUHU216DAVISVP2,2013-07-14 01:12:00,
2013-07-13 18:17:00,98.8,50.8,29.77,NNW,327,6.0,8.0,20,0.00,,,0.00,311.0,WUHU216DAVISVP2,2013-07-14 01:17:00,
2013-07-13 18:22:00,98.8,52.1,29.77,WNW,287,5.0,8.0,21,0.00,,,0.00,295.0,WUHU216DAVISVP2,2013-07-14 01:22:00,
2013-07-13 18:27:00,98.9,52.2,29.77,WNW,286,5.0,8.0,21,0.00,,,0.00,279.0,WUHU216DAVISVP2,2013-07-14 01:27:00,
2013-07-13 18:32:00,98.7,53.3,29.77,NW,321,3.0,8.0,22,0.00,,,0.00,262.0,WUHU216DAVISVP2,2013-07-14 01:32:00,
2013-07-13 18:37:00,98.5,53.1,29.77,WNW,303,5.0,7.0,22,0.00,,,0.00,246.0,WUHU216DAVISVP2,2013-07-14 01:37:00,
2013-07-13 18:42:00,98.5,51.8,29.77,NW,312,4.0,7.0,21,0.00,,,0.00,232.0,WUHU216DAVISVP2,2013-07-14 01:42:00,
2013-07-13 18:47:00,98.6,51.9,29.77,WNW,298,2.0,7.0,21,0.00,,,0.00,213.0,WUHU216DAVISVP2,2013-07-14 01:47:00,
2013-07-13 18:52:00,98.6,54.4,29.77,WNW,298,3.0,7.0,23,0.00,,,0.00,193.0,WUHU216DAVISVP2,2013-07-14 01:52:00,
2013-07-13 18:57:00,98.3,52.9,29.77,WNW,289,4.0,7.0,22,0.00,,,0.00,174.0,WUHU216DAVISVP2,2013-07-14 01:57:00,
2013-07-13 19:02:00,97.9,51.4,29.77,NW,311,3.0,6.0,21,0.00,,,0.00,155.0,WUHU216DAVISVP2,2013-07-14 02:02:00,
2013-07-13 19:07:00,98.0,52.7,29.76,WNW,300,3.0,6.0,22,0.00,,,0.00,137.0,WUHU216DAVISVP2,2013-07-14 02:07:00,
2013-07-13 19:12:00,98.2,52.8,29.76,WNW,300,1.0,6.0,22,0.00,,,0.00,118.0,WUHU216DAVISVP2,2013-07-14 02:12:00,
2013-07-13 19:17:00,98.2,51.6,29.77,NW,308,3.0,6.0,21,0.00,,,0.00,104.0,WUHU216DAVISVP2,2013-07-14 02:17:00,
2013-07-13 19:22:00,98.0,52.7,29.77,NW,312,1.0,6.0,22,0.00,,,0.00,88.0,WUHU216DAVISVP2,2013-07-14 02:22:00,
2013-07-13 19:27:00,97.6,53.6,29.77,NW,310,0.0,6.0,23,0.00,,,0.00,74.0,WUHU216DAVISVP2,2013-07-14 02:27:00,
2013-07-13 19:32:00,97.6,53.6,29.77,NW,310,1.0,6.0,23,0.00,,,0.00,60.0,WUHU216DAVISVP2,2013-07-14 02:32:00,
2013-07-13 19:37:00,97.5,53.5,29.77,NW,310,0.0,5.0,23,0.00,,,0.00,47.0,WUHU216DAVISVP2,2013-07-14 02:37:00,
2013-07-13 19:42:00,97.4,54.5,29.77,NW,310,1.0,3.0,24,0.00,,,0.00,37.0,WUHU216DAVISVP2,2013-07-14 02:42:00,
2013-07-13 19:47:00,97.0,54.2,29.77,NW,310,1.0,4.0,24,0.00,,,0.00,28.0,WUHU216DAVISVP2,2013-07-14 02:47:00,
2013-07-13 19:52:00,96.7,55.1,29.77,NW,310,0.0,4.0,25,0.00,,,0.00,21.0,WUHU216DAVISVP2,2013-07-14 02:52:00,
2013-07-13 19:57:00,96.3,55.8,29.77,NW,310,0.0,4.0,26,0.00,,,0.00,16.0,WUHU216DAVISVP2,2013-07-14 02:57:00,
2013-07-13 20:02:00,95.6,57.2,29.77,NW,310,0.0,3.0,28,0.00,,,0.00,12.0,WUHU216DAVISVP2,2013-07-14 03:02:00,
2013-07-13 20:07:00,94.8,57.5,29.77,NW,310,0.0,3.0,29,0.00,,,0.00,9.0,WUHU216DAVISVP2,2013-07-14 03:07:00,
2013-07-13 20:12:00,94.4,58.1,29.77,NW,310,0.0,3.0,30,0.00,,,0.00,7.0,WUHU216DAVISVP2,2013-07-14 03:12:00,
2013-07-13 20:17:00,94.0,57.8,29.77,NW,310,0.0,2.0,30,0.00,,,0.00,0.0,WUHU216DAVISVP2,2013-07-14 03:17:00,
2013-07-13 20:22:00,93.4,58.2,29.77,NW,310,0.0,1.0,31,0.00,,,0.00,0.0,WUHU216DAVISVP2,2013-07-14 03:22:00,
2013-07-13 20:27:00,93.0,58.8,29.77,NW,310,0.0,1.0,32,0.00,,,0.00,0.0,WUHU216DAVISVP2,2013-07-14 03:27:00,
2013-07-13 20:32:00,92.4,59.0,29.77,NW,310,0.0,1.0,33,0.00,,,0.00,0.0,WUHU216DAVISVP2,2013-07-14 03:32:00,
2013-07-13 20:37:00,91.5,60.0,29.77,NW,310,0.0,1.0,35,0.00,,,0.00,0.0,WUHU216DAVISVP2,2013-07-14 03:37:00,
2013-07-13 20:42:00,90.1,59.5,29.78,NW,310,0.0,1.0,36,0.00,,,0.00,0.0,WUHU216DAVISVP2,2013-07-14 03:42:00,
2013-07-13 20:47:00,88.8,59.1,29.77,NW,310,0.0,1.0,37,0.00,,,0.00,0.0,WUHU216DAVISVP2,2013-07-14 03:47:00,
2013-07-13 20:52:00,87.8,59.7,29.77,NW,310,0.0,1.0,39,0.00,,,0.00,0.0,WUHU216DAVISVP2,2013-07-14 03:52:00,
2013-07-13 20:57:00,87.6,59.5,29.78,NW,310,0.0,0.0,39,0.00,,,0.00,0.0,WUHU216DAVISVP2,2013-07-14 03:57:00,
2013-07-13 21:01:00,87.6,60.3,29.78,NW,310,0.0,0.0,40,0.00,,,0.00,0.0,WUHU216DAVISVP2,2013-07-14 04:01:00,
2013-07-13 21:06:00,87.4,60.1,29.78,NW,310,0.0,1.0,40,0.00,,,0.00,0.0,WUHU216DAVISVP2,2013-07-14 04:06:00,
2013-07-13 21:11:00,86.6,60.8,29.78,NW,310,0.0,1.0,42,0.00,,,0.00,0.0,WUHU216DAVISVP2,2013-07-14 04:11:00,
2013-07-13 21:16:00,86.3,60.5,29.78,NW,310,0.0,1.0,42,0.00,,,0.00,0.0,WUHU216DAVISVP2,2013-07-14 04:16:00,
2013-07-13 21:21:00,86.5,60.7,29.78,NW,310,0.0,1.0,42,0.00,,,0.00,0.0,WUHU216DAVISVP2,2013-07-14 04:21:00,
2013-07-13 21:29:00,86.5,60.7,29.79,NW,310,0.0,0.0,42,0.00,,,0.00,0.0,WUHU216DAVISVP2,2013-07-14 04:29:00,
2013-07-13 21:34:00,86.4,60.6,29.79,NW,310,0.0,0.0,42,0.00,,,0.00,0.0,WUHU216DAVISVP2,2013-07-14 04:34:00,
2013-07-13 21:39:00,86.3,60.5,29.79,NW,310,0.0,1.0,42,0.00,,,0.00,0.0,WUHU216DAVISVP2,2013-07-14 04:39:00,
2013-07-13 21:44:00,86.3,59.8,29.79,NW,310,1.0,3.0,41,0.00,,,0.00,0.0,WUHU216DAVISVP2,2013-07-14 04:44:00,
2013-07-13 21:49:00,86.5,59.3,29.79,NW,310,1.0,3.0,40,0.00,,,0.00,0.0,WUHU216DAVISVP2,2013-07-14 04:49:00,
2013-07-13 21:54:00,86.5,60.0,29.79,NW,310,0.0,3.0,41,0.00,,,0.00,0.0,WUHU216DAVISVP2,2013-07-14 04:54:00,
2013-07-13 21:59:00,85.8,60.7,29.80,NW,310,0.0,3.0,43,0.00,,,0.00,0.0,WUHU216DAVISVP2,2013-07-14 04:59:00,
2013-07-13 22:04:00,85.2,60.2,29.80,NW,310,0.0,2.0,43,0.00,,,0.00,0.0,WUHU216DAVISVP2,2013-07-14 05:04:00,
2013-07-13 22:09:00,84.9,61.2,29.80,NW,310,0.0,0.0,45,0.00,,,0.00,0.0,WUHU216DAVISVP2,2013-07-14 05:09:00,
2013-07-13 22:14:00,84.1,61.1,29.80,NW,310,0.0,0.0,46,0.00,,,0.00,0.0,WUHU216DAVISVP2,2013-07-14 05:14:00,
2013-07-13 22:19:00,82.9,61.2,29.80,NW,310,0.0,0.0,48,0.00,,,0.00,0.0,WUHU216DAVISVP2,2013-07-14 05:19:00,
2013-07-13 22:24:00,82.3,61.8,29.80,NW,310,0.0,1.0,50,0.00,,,0.00,0.0,WUHU216DAVISVP2,2013-07-14 05:24:00,
2013-07-13 22:29:00,81.9,62.7,29.80,NW,311,0.0,3.0,52,0.00,,,0.00,0.0,WUHU216DAVISVP2,2013-07-14 05:29:00,
2013-07-13 22:34:00,81.5,61.1,29.80,NW,311,1.0,3.0,50,0.00,,,0.00,0.0,WUHU216DAVISVP2,2013-07-14 05:34:00,
2013-07-13 22:39:00,81.5,61.1,29.81,NW,311,0.0,3.0,50,0.00,,,0.00,0.0,WUHU216DAVISVP2,2013-07-14 05:39:00,
2013-07-13 22:44:00,81.6,60.6,29.81,NW,311,0.0,3.0,49,0.00,,,0.00,0.0,WUHU216DAVISVP2,2013-07-14 05:44:00,
2013-07-13 22:49:00,81.8,59.6,29.81,NW,311,1.0,3.0,47,0.00,,,0.00,0.0,WUHU216DAVISVP2,2013-07-14 05:49:00,
2013-07-13 22:54:00,82.0,59.2,29.81,NW,311,2.0,3.0,46,0.00,,,0.00,0.0,WUHU216DAVISVP2,2013-07-14 05:54:00,
2013-07-13 22:59:00,82.2,58.8,29.80,NW,310,4.0,4.0,45,0.00,,,0.00,0.0,WUHU216DAVISVP2,2013-07-14 05:59:00,
2013-07-13 23:04:00,82.4,58.3,29.81,NW,310,2.0,4.0,44,0.00,,,0.00,0.0,WUHU216DAVISVP2,2013-07-14 06:04:00,
2013-07-13 23:09:00,82.7,57.3,29.81,NW,310,3.0,5.0,42,0.00,,,0.00,0.0,WUHU216DAVISVP2,2013-07-14 06:09:00,
2013-07-13 23:14:00,82.9,56.8,29.81,WNW,297,4.0,5.0,41,0.00,,,0.00,0.0,WUHU216DAVISVP2,2013-07-14 06:14:00,
2013-07-13 23:19:00,82.8,56.7,29.81,WNW,296,3.0,5.0,41,0.00,,,0.00,0.0,WUHU216DAVISVP2,2013-07-14 06:19:00,
2013-07-13 23:24:00,82.6,57.2,29.81,WNW,282,3.0,5.0,42,0.00,,,0.00,0.0,WUHU216DAVISVP2,2013-07-14 06:24:00,
2013-07-13 23:29:00,82.2,57.5,29.81,WNW,286,3.0,5.0,43,0.00,,,0.00,0.0,WUHU216DAVISVP2,2013-07-14 06:29:00,
2013-07-13 23:34:00,81.9,56.5,29.81,WNW,286,4.0,5.0,42,0.00,,,0.00,0.0,WUHU216DAVISVP2,2013-07-14 06:34:00,
2013-07-13 23:39:00,81.8,56.4,29.81,WNW,286,1.0,5.0,42,0.00,,,0.00,0.0,WUHU216DAVISVP2,2013-07-14 06:39:00,
2013-07-13 23:44:00,81.6,56.3,29.82,WNW,286,2.0,5.0,42,0.00,,,0.00,0.0,WUHU216DAVISVP2,2013-07-14 06:44:00,
2013-07-13 23:49:00,81.4,56.1,29.82,WNW,286,0.0,4.0,42,0.00,,,0.00,0.0,WUHU216DAVISVP2,2013-07-14 06:49:00,
2013-07-13 23:54:00,81.1,55.8,29.82,WNW,286,0.0,4.0,42,0.00,,,0.00,0.0,WUHU216DAVISVP2,2013-07-14 06:54:00,
2013-07-13 23:59:00,81.0,55.7,29.82,WNW,286,0.0,4.0,42,0.00,,,0.00,0.0,WUHU216DAVISVP2,2013-07-14 06:59:00,